Terminal Aerodrome Forecast
Issued by NWS

Home | Current Version | Previous Version | Text Only | Print | Product List | Glossary On
Versions: 1 2 3 4 5 6 7 8 9 10 11 12 13 14 15 16 17 18 19 20 21 22 23 24 25 26 27 28 29 30 31 32 33 34 35 36 37 38 39 40 41 42 43 44 45 46 47 48 49 50
000
FTAK31 PAFA 201137
TAFAGA
TAF
PAGA 201137Z 2012/2112 00000KT 1/2SM FZFG OVC002
      TEMPO 2012/2015 1 1/2SM BR
     FM201800 00000KT 3SM BR BKN003
     FM202000 00000KT P6SM SCT005=

USA.gov is the U.S. government's official web portal to all federal, state and local government web resources and services.